Location: Bishausen
(51.6334°N, 9.9631°E)
Time: 14:41:39
(UTC+00:00)

COSMOS 468 DEB - Visible Passes

Search period start: 04 October 2024 00:00
Search period end: 14 October 2024 00:00
Orbit: 743 x 762 km, 74.0° (Epoch: 30 September)

Date Brightness Start Highest point End Pass type
(mag) Time Alt. Az. Time Alt. Az. Time Alt. Az.
04 Oct ? 18:33:21 10° N 18:37:16 21° NE 18:38:15 20° ENE visible
04 Oct ? 20:14:29 10° NNW 20:18:11 47° NNW 20:18:11 47° NNW visible
04 Oct ? 21:57:46 10° WNW 21:58:08 11° WNW 21:58:08 11° WNW visible
05 Oct ? 17:52:13 10° N 17:55:05 15° NE 17:57:25 11° ENE visible
05 Oct ? 19:32:52 10° NNW 19:37:22 52° NNE 19:37:22 52° NNE visible
05 Oct ? 21:15:09 10° NW 21:17:19 20° WNW 21:17:19 20° WNW visible
06 Oct ? 18:51:22 10° NNW 18:56:10 35° NE 18:56:34 35° ENE visible
06 Oct ? 20:33:05 10° NW 20:36:31 35° WNW 20:36:31 35° WNW visible
07 Oct ? 18:09:58 10° N 18:14:10 24° NE 18:15:48 20° ENE visible
07 Oct ? 19:51:16 10° NNW 19:55:45 63° NW 19:55:45 63° NW visible
07 Oct ? 21:35:11 10° WNW 21:35:42 11° WNW 21:35:42 11° WNW visible
08 Oct ? 17:28:45 10° N 17:32:02 16° NE 17:35:04 11° ENE visible
08 Oct ? 19:09:36 10° NNW 19:14:49 67° ENE 19:15:02 66° ENE visible
08 Oct ? 20:52:09 10° NW 20:54:58 20° W 20:54:58 20° W visible
09 Oct ? 18:28:03 10° NNW 18:33:00 41° NE 18:34:20 35° E visible
09 Oct ? 20:09:56 10° NW 20:14:18 36° W 20:14:18 36° W visible
10 Oct ? 17:46:37 10° N 17:51:03 27° NE 17:53:43 18° E visible
10 Oct ? 19:28:02 10° NNW 19:33:12 62° WSW 19:33:40 59° SW visible
11 Oct ? 17:05:19 10° N 17:08:57 19° NE 17:12:35 10° E visible
11 Oct ? 18:46:19 10° NNW 18:51:34 80° ENE 18:53:07 47° SE visible
11 Oct ? 20:29:13 10° NW 20:32:40 18° W 20:33:04 18° WSW visible
12 Oct ? 18:04:43 10° NNW 18:09:48 49° ENE 18:12:38 24° ESE visible
12 Oct ? 19:46:48 10° NW 19:51:20 30° WSW 19:52:36 27° SW visible
13 Oct ? 17:23:14 10° N 17:27:53 31° NE 17:32:15 11° ESE visible
13 Oct ? 19:04:49 10° NNW 19:09:53 52° WSW 19:12:14 29° SSW visible
